STARLINK-32021 (60148 NORAD) Tracking and Keplerian Element Data

This shows tracking and keplerian element data for the satellite.

Feedback or suggestion? Click here.




ElementValue
Catalog60148
NameSTARLINK-32021
Epoch Orbit1786
Epoch Day286.75471431
Epoch Year2024
RAAN186.709
Inclination53.1575
Eccentricity0.000103
Argument of Perigee64.6097
Mean Anonmoly295.5015
Mean Motion15.39743401
Decay Rate0.00114514
L11 60148U 24120P 24286.75471431 .00114514 00000+0 28186-2 0 9994
L22 60148 53.1575 186.7090 0001030 64.6097 295.5015 15.39743401 17860



Live tracking and technical data element details for STARLINK-32021 (NORAD 60148). STARLINK-32021 can be tracked NOW for your location showing map with azimuth and elevation plus other details from your city location.







IsCatalogInMostPopularTable: catalog: 60148, numindb: 10
Update: records affected: 1



GetName: 60148 STARLINK-32021

Hit Count: updated at: Thu, 23 Jan 2025 13:46:46 GMT